Weather History for Big Bear City, CA

Change the Weather History Date:

Wednesday, January 2, 2013

  Actual Average (KBUO) Record (KBUO)
Temperature  
Mean Temperature 24 °F -  
Max Temperature 39 °F 61 °F 71 °F (1999)
Min Temperature 10 °F 42 °F 39 °F (2000)
Degree Days  
Heating Degree Days 40    
Moisture  
Dew Point 4 °F    
Average Humidity 47    
Maximum Humidity 73    
Minimum Humidity 19    
Precipitation  
Precipitation 0.00 in - - ()
Sea Level Pressure  
Sea Level Pressure 30.14 in    
Wind  
Wind Speed 3 mph (East)    
Max Wind Speed 15 mph    
Max Gust Speed 18 mph    
Visibility 10 miles    
Events      
Averages and records for this station are not official NWS values.
T = Trace of Precipitation, MM = Missing Value Source: NWS Daily Summary

Daily Weather History Graph

Daily Weather History Graph

Search for Another Location

Airport:

Trip Planner

Search our weather history database for the weather conditions in past years. The results will help you decide how hot, cold, wet, or windy it might be!

Date:

Astronomy

Jan. 02, 2013 Rise Set
Actual Time 6:53 AM PST 4:49 PM PST
Civil Twilight 6:26 AM PST 5:17 PM PST
Nautical Twilight 5:54 AM PST 5:48 PM PST
Astronomical Twilight 5:24 AM PST 6:19 PM PST
Moon 10:10 PM PST (1/2) 9:52 AM PST (1/2)
Length of Visible Light 10h 51m
Length of Day
9h 55m
Waning Gibbous, 74% of the Moon is Illuminated
Jan 2
Waning Gibbous
Jan 4
Last Quarter
Jan 11
New
Jan 18
First Quarter
Jan 26
Full

Hourly Weather History & Observations

Time (PST) Temp. Windchill Dew Point Humidity Pressure Visibility Wind Dir Wind Speed Gust Speed Precip Events Conditions
12:15 AM 19.4 °F 14.3 °F 3.2 °F 49% 30.16 in 10.0 mi ENE 3.5 mph - N/A   Clear
12:35 AM 19.4 °F - 3.2 °F 49% 30.16 in 10.0 mi Calm Calm - N/A   Clear
12:55 AM 17.6 °F 12.3 °F 5.0 °F 58% 30.16 in 10.0 mi NE 3.5 mph - N/A   Clear
1:15 AM 17.6 °F - 3.2 °F 53% 30.16 in 10.0 mi Calm Calm - N/A   Clear
1:35 AM 17.6 °F - 3.2 °F 53% 30.16 in 10.0 mi Calm Calm - N/A   Clear
1:55 AM 17.6 °F 12.3 °F 3.2 °F 53% 30.15 in 10.0 mi East 3.5 mph - N/A   Clear
2:15 AM 15.8 °F 8.6 °F 3.2 °F 58% 30.15 in 10.0 mi ENE 4.6 mph - N/A   Clear
2:35 AM 17.6 °F 12.3 °F 3.2 °F 53% 30.15 in 10.0 mi ENE 3.5 mph - N/A   Clear
2:55 AM 15.8 °F - 3.2 °F 58% 30.16 in 10.0 mi Calm Calm - N/A   Clear
3:15 AM 14.0 °F - 3.2 °F 62% 30.16 in 10.0 mi Calm Calm - N/A   Clear
3:35 AM 14.0 °F - 5.0 °F 67% 30.15 in 10.0 mi Calm Calm - N/A   Clear
4:15 AM 14.0 °F - 3.2 °F 62% 30.14 in 10.0 mi Calm Calm - N/A   Clear
4:35 AM 12.2 °F - 5.0 °F 73% 30.14 in 10.0 mi Calm Calm - N/A   Clear
4:55 AM 12.2 °F - 3.2 °F 67% 30.14 in 10.0 mi Calm Calm - N/A   Clear
5:15 AM 12.2 °F 4.3 °F 3.2 °F 67% 30.14 in 10.0 mi East 4.6 mph - N/A   Clear
5:35 AM 12.2 °F - 3.2 °F 67% 30.16 in 10.0 mi Calm Calm - N/A   Clear
5:55 AM 10.4 °F - 3.2 °F 73% 30.16 in 10.0 mi Calm Calm - N/A   Clear
6:15 AM 10.4 °F - 3.2 °F 73% 30.15 in 10.0 mi Calm Calm - N/A   Clear
6:35 AM 10.4 °F - 3.2 °F 73% 30.16 in 10.0 mi Calm Calm - N/A   Clear
6:55 AM 10.4 °F - 3.2 °F 73% 30.16 in 10.0 mi Calm Calm - N/A   Clear
7:15 AM 10.4 °F - 3.2 °F 73% 30.16 in 10.0 mi Calm Calm - N/A   Clear
7:35 AM 10.4 °F - 3.2 °F 73% 30.16 in 10.0 mi Calm Calm - N/A   Clear
7:55 AM 12.2 °F - 3.2 °F 67% 30.16 in 10.0 mi Calm Calm - N/A   Clear
8:15 AM 14.0 °F - 3.2 °F 62% 30.16 in 10.0 mi Calm Calm - N/A   Clear
8:35 AM 19.4 °F - 5.0 °F 54% 30.16 in 10.0 mi Calm Calm - N/A   Clear
8:55 AM 23.0 °F 18.4 °F 6.8 °F 50% 30.16 in 7.0 mi East 3.5 mph - N/A   Clear
9:15 AM 30.2 °F 21.9 °F 3.2 °F 32% 30.16 in 10.0 mi ENE 9.2 mph - N/A   Clear
9:35 AM 32.0 °F 24.8 °F 3.2 °F 30% 30.16 in 10.0 mi East 8.1 mph - N/A   Clear
9:55 AM 32.0 °F 24.2 °F 1.4 °F 27% 30.16 in 10.0 mi ENE 9.2 mph - N/A   Clear
10:15 AM 33.8 °F 25.3 °F 1.4 °F 25% 30.16 in 10.0 mi East 11.5 mph - N/A   Clear
10:35 AM 33.8 °F 25.3 °F 1.4 °F 25% 30.15 in 10.0 mi ENE 11.5 mph - N/A   Clear
10:55 AM 35.6 °F 28.0 °F 3.2 °F 26% 30.15 in 10.0 mi ENE 10.4 mph - N/A   Clear
11:15 AM 37.4 °F 28.9 °F 1.4 °F 22% 30.14 in 10.0 mi ENE 13.8 mph - N/A   Clear
11:35 AM 37.4 °F 28.5 °F -0.4 °F 20% 30.13 in 10.0 mi ENE 15.0 mph - N/A   Clear
11:55 AM 37.4 °F 29.8 °F 1.4 °F 22% 30.11 in 10.0 mi East 11.5 mph - N/A   Clear
12:15 PM 37.4 °F 29.8 °F 1.4 °F 22% 30.11 in 10.0 mi ENE 11.5 mph - N/A   Clear
12:35 PM 37.4 °F 30.8 °F 1.4 °F 22% 30.11 in 10.0 mi ENE 9.2 mph - N/A   Clear
12:55 PM 37.4 °F 29.8 °F 1.4 °F 22% 30.10 in 10.0 mi East 11.5 mph - N/A   Clear
1:15 PM 39.2 °F 32.0 °F 3.2 °F 22% 30.10 in 10.0 mi East 11.5 mph - N/A   Clear
1:35 PM 39.2 °F 31.6 °F 1.4 °F 21% 30.10 in 10.0 mi ENE 12.7 mph 18.4 mph N/A   Clear
1:55 PM 39.2 °F 31.6 °F -0.4 °F 19% 30.09 in 10.0 mi ENE 12.7 mph - N/A   Clear
2:15 PM 39.2 °F 32.0 °F -0.4 °F 19% 30.09 in 10.0 mi ENE 11.5 mph 17.3 mph N/A   Clear
2:35 PM 39.2 °F 32.0 °F -0.4 °F 19% 30.09 in 10.0 mi East 11.5 mph - N/A   Clear
3:15 PM 37.4 °F 31.4 °F 1.4 °F 22% 30.11 in 10.0 mi East 8.1 mph - N/A   Clear
3:35 PM 35.6 °F 28.6 °F 1.4 °F 24% 30.11 in 10.0 mi East 9.2 mph - N/A   Clear
3:55 PM 35.6 °F 29.9 °F 3.2 °F 26% 30.11 in 10.0 mi ESE 6.9 mph - N/A   Clear
4:15 PM 33.8 °F 27.0 °F 3.2 °F 28% 30.11 in 10.0 mi East 8.1 mph - N/A   Clear
4:35 PM 32.0 °F 25.6 °F 3.2 °F 30% 30.11 in 10.0 mi East 6.9 mph - N/A   Clear
4:55 PM 32.0 °F 26.4 °F 5.0 °F 32% 30.11 in 10.0 mi ESE 5.8 mph - N/A   Clear
5:15 PM 30.2 °F 22.6 °F 3.2 °F 32% 30.12 in 10.0 mi ESE 8.1 mph - N/A   Clear
5:55 PM 28.4 °F - 5.0 °F 37% 30.14 in 10.0 mi Calm Calm - N/A   Clear
6:15 PM 26.6 °F - 8.6 °F 47% 30.14 in 10.0 mi Calm Calm - N/A   Clear
6:35 PM 26.6 °F - 8.6 °F 47% 30.14 in 10.0 mi Calm Calm - N/A   Clear
6:55 PM 23.0 °F - 8.6 °F 54% 30.15 in 10.0 mi Calm Calm - N/A   Clear
7:15 PM 23.0 °F 18.4 °F 8.6 °F 54% 30.15 in 10.0 mi East 3.5 mph - N/A   Clear
7:35 PM 21.2 °F - 8.6 °F 58% 30.15 in 10.0 mi Calm Calm - N/A   Clear
7:55 PM 21.2 °F - 8.6 °F 58% 30.15 in 10.0 mi Calm Calm - N/A   Clear
8:15 PM 21.2 °F - 5.0 °F 50% 30.15 in 10.0 mi Calm Calm - N/A   Clear
8:35 PM 19.4 °F - 6.8 °F 58% 30.15 in 10.0 mi Calm Calm - N/A   Clear
8:55 PM 19.4 °F - 5.0 °F 54% 30.16 in 10.0 mi Calm Calm - N/A   Clear
9:15 PM 19.4 °F - 5.0 °F 54% 30.15 in 10.0 mi Calm Calm - N/A   Clear
9:35 PM 19.4 °F - 5.0 °F 54% 30.16 in 10.0 mi Calm Calm - N/A   Clear
9:55 PM 19.4 °F 14.3 °F 3.2 °F 49% 30.16 in 10.0 mi ENE 3.5 mph - N/A   Clear
10:15 PM 17.6 °F - 5.0 °F 58% 30.16 in 7.0 mi Calm Calm - N/A   Clear
10:35 PM 17.6 °F - 5.0 °F 58% 30.16 in 7.0 mi Calm Calm - N/A   Clear
10:55 PM 17.6 °F - 5.0 °F 58% 30.16 in 7.0 mi Calm Calm - N/A   Clear
11:15 PM 17.6 °F - 5.0 °F 58% 30.15 in 7.0 mi Calm Calm - N/A   Clear
11:55 PM 17.6 °F - 3.2 °F 53% 30.14 in 10.0 mi Calm Calm - N/A   Clear